Time,TemperatureF,DewpointF,PressureIn,WindDirection,WindDirectionDegrees,WindSpeedMPH,WindSpeedGustMPH,Humidity,HourlyPrecipIn,Conditions,Clouds,dailyrainin,SolarRadiationWatts/m^2,SoftwareType,DateUTC
2013-11-06 00:22:00,26.0,14.0,-100.00,NNE,17,4.0,10.0,59,0.00,,,0.00,0.000000,,2013-11-06 09:22:00,
2013-11-06 00:33:00,26.0,14.0,-100.00,NNE,17,4.0,10.0,59,0.00,,,0.00,0.000000,,2013-11-06 09:33:00,
2013-11-06 00:43:00,26.0,14.0,-100.00,NNE,17,4.0,10.0,59,0.00,,,0.00,0.000000,,2013-11-06 09:43:00,
2013-11-06 00:53:00,26.0,14.0,-100.00,NNE,17,4.0,10.0,59,0.00,,,0.00,0.000000,,2013-11-06 09:53:00,
2013-11-06 01:23:00,26.0,15.0,-100.00,NNE,22,5.0,12.0,62,0.00,,,0.00,0.000000,,2013-11-06 10:23:00,
2013-11-06 01:33:00,26.0,15.0,-100.00,NNE,22,5.0,12.0,62,0.00,,,0.00,0.000000,,2013-11-06 10:33:00,
2013-11-06 01:42:00,26.0,15.0,-100.00,NNE,22,5.0,12.0,62,0.00,,,0.00,0.000000,,2013-11-06 10:42:00,
2013-11-06 01:52:00,26.0,15.0,-100.00,NNE,22,5.0,12.0,62,0.00,,,0.00,0.000000,,2013-11-06 10:52:00,
2013-11-06 02:22:00,25.0,14.0,-100.00,NNE,32,3.0,9.0,63,0.00,,,0.00,0.000000,,2013-11-06 11:22:00,
2013-11-06 02:33:00,25.0,14.0,-100.00,NNE,32,3.0,9.0,63,0.00,,,0.00,0.000000,,2013-11-06 11:33:00,
2013-11-06 02:42:00,25.0,14.0,-100.00,NNE,32,3.0,9.0,63,0.00,,,0.00,0.000000,,2013-11-06 11:42:00,
2013-11-06 02:52:00,25.0,14.0,-100.00,NNE,32,3.0,9.0,63,0.00,,,0.00,0.000000,,2013-11-06 11:52:00,
2013-11-06 03:22:00,24.0,14.0,-100.00,NE,39,3.0,7.0,64,0.00,,,0.00,0.000000,,2013-11-06 12:22:00,
2013-11-06 03:32:00,24.0,14.0,-100.00,NE,39,3.0,7.0,64,0.00,,,0.00,0.000000,,2013-11-06 12:32:00,
2013-11-06 03:42:00,24.0,14.0,-100.00,NE,39,3.0,7.0,64,0.00,,,0.00,0.000000,,2013-11-06 12:42:00,
2013-11-06 03:52:00,24.0,14.0,-100.00,NE,39,3.0,7.0,64,0.00,,,0.00,0.000000,,2013-11-06 12:52:00,
2013-11-06 04:22:00,24.0,14.0,-100.00,NW,308,2.0,5.0,65,0.00,,,0.00,0.000000,,2013-11-06 13:22:00,
2013-11-06 04:32:00,24.0,14.0,-100.00,NW,308,2.0,5.0,65,0.00,,,0.00,0.000000,,2013-11-06 13:32:00,
2013-11-06 04:42:00,24.0,14.0,-100.00,NW,308,2.0,5.0,65,0.00,,,0.00,0.000000,,2013-11-06 13:42:00,
2013-11-06 04:52:00,24.0,14.0,-100.00,NW,308,2.0,5.0,65,0.00,,,0.00,0.000000,,2013-11-06 13:52:00,
2013-11-06 05:22:00,23.0,13.0,-100.00,NE,46,4.0,6.0,66,0.00,,,-99.99,0.000000,,2013-11-06 14:22:00,
2013-11-06 05:32:00,23.0,13.0,-100.00,NE,46,4.0,6.0,66,0.00,,,-99.99,0.000000,,2013-11-06 14:32:00,
2013-11-06 05:42:00,23.0,13.0,-100.00,NE,46,4.0,6.0,66,0.00,,,-99.99,0.000000,,2013-11-06 14:42:00,
2013-11-06 05:52:00,23.0,13.0,-100.00,NE,46,4.0,6.0,66,0.00,,,-99.99,0.000000,,2013-11-06 14:52:00,
2013-11-06 06:22:00,23.0,14.0,-100.00,NE,35,4.0,7.0,67,0.00,,,0.00,0.000000,,2013-11-06 15:22:00,
2013-11-06 06:33:00,23.0,14.0,-100.00,NE,35,4.0,7.0,67,0.00,,,0.00,0.000000,,2013-11-06 15:33:00,
2013-11-06 06:43:00,23.0,14.0,-100.00,NE,35,4.0,7.0,67,0.00,,,0.00,0.000000,,2013-11-06 15:43:00,
2013-11-06 06:53:00,23.0,14.0,-100.00,NE,35,4.0,7.0,67,0.00,,,0.00,0.000000,,2013-11-06 15:53:00,
2013-11-06 07:23:00,23.0,15.0,-100.00,NE,35,6.0,10.0,71,0.00,,,-99.99,0.000000,,2013-11-06 16:23:00,
2013-11-06 07:33:00,23.0,15.0,-100.00,NE,35,6.0,10.0,71,0.00,,,-99.99,0.000000,,2013-11-06 16:33:00,
2013-11-06 07:42:00,23.0,15.0,-100.00,NE,35,6.0,10.0,71,0.00,,,-99.99,0.000000,,2013-11-06 16:42:00,
2013-11-06 07:53:00,23.0,15.0,-100.00,NE,35,6.0,10.0,71,0.00,,,-99.99,0.000000,,2013-11-06 16:53:00,
2013-11-06 08:23:00,21.0,11.0,-100.00,North,356,2.0,12.0,66,0.00,,,0.00,0.000000,,2013-11-06 17:23:00,
2013-11-06 08:33:00,21.0,11.0,-100.00,North,356,2.0,12.0,66,0.00,,,0.00,0.000000,,2013-11-06 17:33:00,
2013-11-06 08:43:00,21.0,11.0,-100.00,North,356,2.0,12.0,66,0.00,,,0.00,0.000000,,2013-11-06 17:43:00,
2013-11-06 08:52:00,21.0,11.0,-100.00,North,356,2.0,12.0,66,0.00,,,0.00,0.000000,,2013-11-06 17:52:00,
2013-11-06 09:22:00,20.0,11.0,-100.00,NNE,29,2.0,8.0,68,0.00,,,0.00,3.000000,,2013-11-06 18:22:00,
2013-11-06 09:32:00,20.0,11.0,-100.00,NNE,29,2.0,8.0,68,0.00,,,0.00,3.000000,,2013-11-06 18:32:00,
2013-11-06 09:42:00,20.0,11.0,-100.00,NNE,29,2.0,8.0,68,0.00,,,0.00,3.000000,,2013-11-06 18:42:00,
2013-11-06 09:52:00,20.0,11.0,-100.00,NNE,29,2.0,8.0,68,0.00,,,0.00,3.000000,,2013-11-06 18:52:00,
2013-11-06 10:21:00,22.0,13.0,-100.00,South,169,4.0,7.0,69,0.00,,,0.00,14.000000,,2013-11-06 19:21:00,
2013-11-06 10:32:00,22.0,13.0,-100.00,South,169,4.0,7.0,69,0.00,,,0.00,14.000000,,2013-11-06 19:32:00,
2013-11-06 10:42:00,22.0,13.0,-100.00,South,169,4.0,7.0,69,0.00,,,0.00,14.000000,,2013-11-06 19:42:00,
2013-11-06 10:52:00,22.0,13.0,-100.00,South,169,4.0,7.0,69,0.00,,,0.00,14.000000,,2013-11-06 19:52:00,
2013-11-06 11:22:00,26.0,13.0,-100.00,SSW,201,4.0,6.0,58,0.00,,,0.00,67.000000,,2013-11-06 20:22:00,
2013-11-06 11:32:00,26.0,13.0,-100.00,SSW,201,4.0,6.0,58,0.00,,,0.00,67.000000,,2013-11-06 20:32:00,
2013-11-06 11:42:00,26.0,13.0,-100.00,SSW,201,4.0,6.0,58,0.00,,,0.00,67.000000,,2013-11-06 20:42:00,
2013-11-06 11:52:00,26.0,13.0,-100.00,SSW,201,4.0,6.0,58,0.00,,,0.00,67.000000,,2013-11-06 20:52:00,
2013-11-06 12:22:00,27.0,14.0,-100.00,SW,214,4.0,7.0,58,0.00,,,0.00,186.000000,,2013-11-06 21:22:00,
2013-11-06 12:33:00,27.0,14.0,-100.00,SW,214,4.0,7.0,58,0.00,,,0.00,186.000000,,2013-11-06 21:33:00,
2013-11-06 12:43:00,27.0,14.0,-100.00,SW,214,4.0,7.0,58,0.00,,,0.00,186.000000,,2013-11-06 21:43:00,
2013-11-06 12:54:00,27.0,14.0,-100.00,SW,214,4.0,7.0,58,0.00,,,0.00,186.000000,,2013-11-06 21:54:00,
2013-11-06 13:23:00,30.0,17.0,-100.00,NW,323,2.0,6.0,57,0.00,,,0.00,189.000000,,2013-11-06 22:23:00,
2013-11-06 13:33:00,30.0,17.0,-100.00,NW,323,2.0,6.0,57,0.00,,,0.00,189.000000,,2013-11-06 22:33:00,
2013-11-06 13:43:00,30.0,17.0,-100.00,NW,323,2.0,6.0,57,0.00,,,0.00,189.000000,,2013-11-06 22:43:00,
2013-11-06 13:53:00,30.0,17.0,-100.00,NW,323,2.0,6.0,57,0.00,,,0.00,189.000000,,2013-11-06 22:53:00,
2013-11-06 14:22:00,30.0,17.0,-100.00,NW,312,2.0,6.0,59,0.00,,,0.00,204.000000,,2013-11-06 23:22:00,
2013-11-06 14:33:00,30.0,17.0,-100.00,NW,312,2.0,6.0,59,0.00,,,0.00,204.000000,,2013-11-06 23:33:00,
2013-11-06 14:42:00,30.0,17.0,-100.00,NW,312,2.0,6.0,59,0.00,,,0.00,204.000000,,2013-11-06 23:42:00,
2013-11-06 14:53:00,30.0,17.0,-100.00,NW,312,2.0,6.0,59,0.00,,,0.00,204.000000,,2013-11-06 23:53:00,
2013-11-06 15:22:00,29.0,18.0,-100.00,North,355,2.0,5.0,63,0.00,,,0.00,146.000000,,2013-11-07 00:22:00,
2013-11-06 15:32:00,29.0,18.0,-100.00,North,355,2.0,5.0,63,0.00,,,0.00,146.000000,,2013-11-07 00:32:00,
2013-11-06 15:42:00,29.0,18.0,-100.00,North,355,2.0,5.0,63,0.00,,,0.00,146.000000,,2013-11-07 00:42:00,
2013-11-06 15:52:00,29.0,18.0,-100.00,North,355,2.0,5.0,63,0.00,,,0.00,146.000000,,2013-11-07 00:52:00,
2013-11-06 16:22:00,24.0,16.0,-100.00,SSE,163,1.0,5.0,71,0.00,,,0.00,50.000000,,2013-11-07 01:22:00,
2013-11-06 16:32:00,24.0,16.0,-100.00,SSE,163,1.0,5.0,71,0.00,,,0.00,50.000000,,2013-11-07 01:32:00,
2013-11-06 16:42:00,24.0,16.0,-100.00,SSE,163,1.0,5.0,71,0.00,,,0.00,50.000000,,2013-11-07 01:42:00,
2013-11-06 16:52:00,24.0,16.0,-100.00,SSE,163,1.0,5.0,71,0.00,,,0.00,50.000000,,2013-11-07 01:52:00,
2013-11-06 17:22:00,23.0,17.0,-100.00,SE,127,2.0,7.0,78,0.00,,,0.00,13.000000,,2013-11-07 02:22:00,
2013-11-06 17:32:00,23.0,17.0,-100.00,SE,127,2.0,7.0,78,0.00,,,0.00,13.000000,,2013-11-07 02:32:00,
2013-11-06 17:42:00,23.0,17.0,-100.00,SE,127,2.0,7.0,78,0.00,,,0.00,13.000000,,2013-11-07 02:42:00,
2013-11-06 17:53:00,23.0,17.0,-100.00,SE,127,2.0,7.0,78,0.00,,,0.00,13.000000,,2013-11-07 02:53:00,
2013-11-06 18:21:00,23.0,16.0,-100.00,ESE,117,1.0,6.0,74,0.00,,,0.00,0.000000,,2013-11-07 03:21:00,
2013-11-06 18:32:00,23.0,16.0,-100.00,ESE,117,1.0,6.0,74,0.00,,,0.00,0.000000,,2013-11-07 03:32:00,
2013-11-06 18:44:00,23.0,16.0,-100.00,ESE,117,1.0,6.0,74,0.00,,,0.00,0.000000,,2013-11-07 03:44:00,
2013-11-06 18:54:00,23.0,16.0,-100.00,ESE,117,1.0,6.0,74,0.00,,,0.00,0.000000,,2013-11-07 03:54:00,
2013-11-06 19:24:00,24.0,17.0,-100.00,SSW,201,2.0,5.0,73,0.00,,,0.00,0.000000,,2013-11-07 04:24:00,
2013-11-06 19:34:00,24.0,17.0,-100.00,SSW,201,2.0,5.0,73,0.00,,,0.00,0.000000,,2013-11-07 04:34:00,
2013-11-06 19:43:00,24.0,17.0,-100.00,SSW,201,2.0,5.0,73,0.00,,,0.00,0.000000,,2013-11-07 04:43:00,
2013-11-06 19:53:00,24.0,17.0,-100.00,SSW,201,2.0,5.0,73,0.00,,,0.00,0.000000,,2013-11-07 04:53:00,
2013-11-06 20:23:00,24.0,15.0,-100.00,SSE,152,3.0,5.0,68,0.00,,,0.00,0.000000,,2013-11-07 05:23:00,
2013-11-06 20:34:00,24.0,15.0,-100.00,SSE,152,3.0,5.0,68,0.00,,,0.00,0.000000,,2013-11-07 05:34:00,
2013-11-06 20:44:00,24.0,15.0,-100.00,SSE,152,3.0,5.0,68,0.00,,,0.00,0.000000,,2013-11-07 05:44:00,
2013-11-06 20:54:00,24.0,15.0,-100.00,SSE,152,3.0,5.0,68,0.00,,,0.00,0.000000,,2013-11-07 05:54:00,
2013-11-06 21:23:00,25.0,16.0,-100.00,SSE,163,2.0,4.0,67,0.00,,,0.00,0.000000,,2013-11-07 06:23:00,
2013-11-06 21:32:00,25.0,16.0,-100.00,SSE,163,2.0,4.0,67,0.00,,,0.00,0.000000,,2013-11-07 06:32:00,
2013-11-06 21:42:00,25.0,16.0,-100.00,SSE,163,2.0,4.0,67,0.00,,,0.00,0.000000,,2013-11-07 06:42:00,
2013-11-06 21:52:00,25.0,16.0,-100.00,SSE,163,2.0,4.0,67,0.00,,,0.00,0.000000,,2013-11-07 06:52:00,
2013-11-06 22:21:00,25.0,15.0,-100.00,SSE,147,1.0,4.0,65,0.00,,,0.00,0.000000,,2013-11-07 07:21:00,
2013-11-06 22:32:00,25.0,15.0,-100.00,SSE,147,1.0,4.0,65,0.00,,,0.00,0.000000,,2013-11-07 07:32:00,
2013-11-06 22:42:00,25.0,15.0,-100.00,SSE,147,1.0,4.0,65,0.00,,,0.00,0.000000,,2013-11-07 07:42:00,
2013-11-06 22:52:00,25.0,15.0,-100.00,SSE,147,1.0,4.0,65,0.00,,,0.00,0.000000,,2013-11-07 07:52:00,
2013-11-06 23:22:00,24.0,15.0,-100.00,NE,52,2.0,4.0,67,0.00,,,0.00,0.000000,,2013-11-07 08:22:00,
2013-11-06 23:32:00,24.0,15.0,-100.00,NE,52,2.0,4.0,67,0.00,,,0.00,0.000000,,2013-11-07 08:32:00,
2013-11-06 23:42:00,24.0,15.0,-100.00,NE,52,2.0,4.0,67,0.00,,,0.00,0.000000,,2013-11-07 08:42:00,
2013-11-06 23:52:00,24.0,15.0,-100.00,NE,52,2.0,4.0,67,0.00,,,0.00,0.000000,,2013-11-07 08:52:00,